Location: Newark
(45.9456°N, 15.4064°E)
Time: 21:40:02
(UTC+00:00)

Envisat - Visible Passes

Search period start: 14 December 2019 00:00
Search period end: 24 December 2019 00:00
Orbit: 764 x 766 km, 98.1° (Epoch: 14 December)

Date Brightness Start Highest point End Pass type
(mag) Time Alt. Az. Time Alt. Az. Time Alt. Az.
14 Dec 3.9 05:32:31 10° NNE 05:37:32 55° E 05:42:29 10° S visible
14 Dec 3.0 16:49:22 10° SSE 16:54:26 90° WSW 16:59:33 10° NNW visible
14 Dec 6.1 18:32:19 10° WSW 18:34:11 12° W 18:36:03 10° WNW visible
15 Dec 5.3 04:56:16 10° NE 05:00:32 26° E 05:04:46 10° SSE visible
15 Dec 3.3 16:12:59 10° SE 16:17:47 44° ENE 16:22:35 10° N visible
15 Dec 5.2 17:52:48 10° SSW 17:56:58 25° W 18:01:10 10° NW visible
16 Dec 6.2 04:21:15 10° ENE 04:23:20 12° E 04:25:24 10° ESE visible
16 Dec 3.8 17:15:01 10° S 17:19:58 53° W 17:24:58 10° NNW visible
17 Dec 4.3 05:21:20 10° NNE 05:26:12 44° E 05:31:02 10° S visible
17 Dec 2.9 16:38:06 10° SSE 16:43:10 74° ENE 16:48:15 10° N visible
17 Dec 5.9 18:19:52 10° WSW 18:22:45 15° W 18:25:39 10° NW visible
18 Dec 5.7 04:45:18 10° NE 04:49:09 21° E 04:52:58 10° SE visible
18 Dec 3.5 16:01:58 10° SE 16:06:33 36° ENE 16:11:10 10° N visible
18 Dec 4.8 17:41:06 10° SSW 17:45:36 31° W 17:50:08 10° NNW visible
19 Dec 3.3 05:46:39 10° NNE 05:51:46 75° ESE 05:56:50 10° S visible
19 Dec 3.3 17:03:37 10° S 17:08:39 67° WSW 17:13:44 10° NNW visible
20 Dec 4.8 05:10:11 10° NNE 05:14:52 35° E 05:19:29 10° SSE visible
20 Dec 3.0 16:26:56 10° SSE 16:31:55 59° ENE 16:36:55 10° N visible
20 Dec 5.6 18:07:47 10° SW 18:11:20 19° W 18:14:54 10° NW visible
21 Dec 5.9 04:34:27 10° NE 04:37:44 17° E 04:41:01 10° SE visible
21 Dec 3.8 15:51:01 10° SE 15:55:21 29° ENE 15:59:43 10° N visible
21 Dec 4.4 17:29:30 10° SSW 17:34:14 39° W 17:39:00 10° NNW visible
22 Dec 3.7 05:35:25 10° NNE 05:40:28 60° E 05:45:28 10° S visible
22 Dec 3.0 16:52:17 10° SSE 16:57:21 83° WSW 17:02:29 10° NNW visible
22 Dec 6.2 18:36:00 10° W 18:37:10 11° W 18:38:21 10° WNW visible
23 Dec 5.2 04:59:06 10° NE 05:03:29 29° E 05:07:51 10° SSE visible
23 Dec 3.2 16:15:49 10° SE 16:20:41 48° ENE 16:25:33 10° N visible
23 Dec 5.3 17:55:54 10° SW 17:59:56 23° W 18:03:59 10° NW visible
